KC5NAM Weather Reports


time (UTC)temp
C
wind
direction
speed
KPH
gust
KPH
rain 1hr
cm
rain 24hr
cm
rain mn
cm
humidity
%
barometer
mb
20260506144552 25 0 1.6 9.7 0.00 0.00 0.00 88 1013.5
20260506144036 25 110 0.0 4.8 0.00 0.00 0.00 89 1013.4
20260506143536 25 0 0.0 4.8 0.00 0.00 0.00 89 1013.4
20260506143047 25 0 0.0 4.8 0.00 0.00 0.00 89 1013.3
20260506142536 25 0 0.0 4.8 0.00 0.00 0.00 90 1013.2
20260506142036 25 0 0.0 8.0 0.00 0.00 0.00 91 1013.2
20260506141541 25 120 0.0 8.0 0.00 0.00 0.00 91 1013.2
20260506141037 25 0 0.0 12.9 0.00 0.00 0.00 91 1013.0
20260506140537 24 86 0.0 12.9 0.00 0.00 0.00 91 1012.9
20260506140046 24 0 1.6 11.3 0.00 0.00 0.00 91 1012.6
20260506135536 24 115 1.6 14.5 0.00 0.00 0.00 92 1012.5
20260506135036 24 50 4.8 16.1 0.00 0.00 0.00 91 1012.4
20260506134609 24 107 1.6 16.1 0.00 0.00 0.00 92 1012.3
20260506134037 24 164 1.6 14.5 0.00 0.00 0.00 92 1012.4
20260506133601 24 180 1.6 14.5 0.00 0.00 0.00 92 1012.3
20260506133048 24 143 4.8 14.5 0.00 0.00 0.00 92 1012.4
20260506132536 24 146 1.6 11.3 0.00 0.00 0.00 92 1012.3
20260506132036 24 0 0.0 6.4 0.00 0.00 0.00 92 1012.4
20260506131606 24 0 0.0 9.7 0.00 0.00 0.00 92 1012.4
20260506131036 23 0 1.6 9.7 0.00 0.00 0.00 92 1012.4
20260506130536 23 0 0.0 9.7 0.00 0.00 0.00 93 1012.4
20260506130045 23 0 1.6 9.7 0.00 0.00 0.00 93 1012.4
20260506125535 23 117 1.6 9.7 0.00 0.00 0.00 93 1012.4
20260506125036 23 155 0.0 9.7 0.00 0.00 0.00 93 1012.4
20260506124541 23 91 1.6 9.7 0.00 0.00 0.00 92 1012.4
20260506124037 23 89 1.6 9.7 0.00 0.00 0.00 92 1012.4
20260506123537 23 0 1.6 9.7 0.00 0.00 0.00 92 1012.3
20260506123050 23 0 0.0 6.4 0.00 0.00 0.00 92 1012.3
20260506122536 23 103 1.6 6.4 0.00 0.00 0.00 92 1012.2
20260506122036 23 110 0.0 6.4 0.00 0.00 0.00 92 1012.1
20260506121549 23 0 0.0 6.4 0.00 0.00 0.00 92 1012.1
20260506121036 23 0 0.0 8.0 0.00 0.00 0.00 92 1012.1
20260506120536 23 79 0.0 8.0 0.00 0.00 0.00 92 1012.0
20260506120051 23 0 1.6 6.4 0.00 0.00 0.00 91 1012.2
20260506115537 23 81 1.6 6.4 0.00 0.00 0.00 91 1012.2
20260506115036 23 0 1.6 4.8 0.00 0.00 0.00 92 1012.2
20260506114548 23 104 0.0 6.4 0.00 0.00 0.00 91 1012.3
20260506114036 23 0 0.0 6.4 0.00 0.00 0.00 91 1012.2
20260506113537 23 0 0.0 6.4 0.00 0.00 0.00 91 1012.2
20260506113051 23 0 0.0 6.4 0.00 0.00 0.00 91 1012.1
20260506112537 23 86 0.0 6.4 0.00 0.00 0.00 91 1012.2
20260506112036 23 0 0.0 8.0 0.00 0.00 0.00 91 1012.1
20260506111538 23 109 0.0 8.0 0.00 0.00 0.00 91 1012.0
20260506111036 23 173 0.0 8.0 0.00 0.00 0.00 91 1012.0
20260506110537 23 0 0.0 8.0 0.00 0.00 0.00 91 1012.0
20260506110051 23 129 0.0 9.7 0.00 0.00 0.00 91 1012.0
20260506105536 23 0 1.6 9.7 0.00 0.00 0.00 90 1012.0
20260506105036 23 0 1.6 9.7 0.00 0.00 0.00 90 1012.0
20260506104544 24 153 3.2 9.7 0.00 0.00 0.00 90 1012.0
20260506104036 24 0 0.0 6.4 0.00 0.00 0.00 90 1011.8
20260506103536 24 133 0.0 8.0 0.00 0.00 0.00 90 1011.8
20260506103042 24 0 0.0 9.7 0.00 0.00 0.00 90 1011.8
20260506102535 24 0 1.6 9.7 0.00 0.00 0.00 90 1011.7
20260506102037 23 149 0.0 4.8 0.00 0.00 0.00 90 1011.6
20260506101541 24 0 0.0 4.8 0.00 0.00 0.00 89 1011.4
20260506101031 24 0 0.0 6.4 0.00 0.00 0.00 89 1011.6
20260506100534 24 0 0.0 9.7 0.00 0.00 0.00 88 1011.6
20260506100040 24 163 0.0 9.7 0.00 0.00 0.00 88 1011.7
20260506095534 24 169 1.6 9.7 0.00 0.00 0.00 88 1011.5
20260506095037 24 0 1.6 9.7 0.00 0.00 0.00 88 1011.4
20260506094545 24 136 4.8 11.3 0.00 0.00 0.00 88 1011.3
20260506094039 24 153 3.2 11.3 0.00 0.00 0.00 88 1011.4
20260506093534 24 157 1.6 11.3 0.00 0.00 0.00 87 1011.5
20260506093051 24 153 4.8 12.9 0.00 0.00 0.00 87 1011.5
20260506092535 24 142 1.6 12.9 0.00 0.00 0.00 87 1011.5
20260506092037 25 171 1.6 9.7 0.00 0.00 0.00 87 1011.7
20260506091542 25 0 1.6 11.3 0.00 0.00 0.00 87 1011.8
20260506091035 25 150 3.2 11.3 0.00 0.00 0.00 87 1011.9
20260506090534 25 147 6.4 11.3 0.00 0.00 0.00 87 1011.9
20260506090041 25 145 1.6 12.9 0.00 0.00 0.00 87 1012.0
20260506085534 25 0 3.2 12.9 0.00 0.00 0.00 87 1012.0
20260506085034 25 154 3.2 12.9 0.00 0.00 0.00 87 1012.1
20260506084538 25 157 6.4 12.9 0.00 0.00 0.00 87 1012.1
20260506084036 25 0 1.6 12.9 0.00 0.00 0.00 87 1012.0
20260506083534 25 164 6.4 12.9 0.00 0.00 0.00 87 1012.0
20260506083104 25 148 1.6 12.9 0.00 0.00 0.00 87 1011.9
20260506082536 25 154 3.2 14.5 0.00 0.00 0.00 87 1011.7
20260506082035 25 160 4.8 14.5 0.00 0.00 0.00 87 1011.8
20260506081548 25 154 4.8 14.5 0.00 0.00 0.00 87 1011.8
20260506081035 25 130 4.8 12.9 0.00 0.00 0.00 87 1011.6
20260506080535 25 167 4.8 14.5 0.00 0.00 0.00 87 1011.7
20260506073039 25 202 4.8 12.9 0.00 0.00 0.00 86 1012.0
20260506072534 25 0 6.4 16.1 0.00 0.00 0.00 86 1012.0
20260506072034 25 159 6.4 16.1 0.00 0.00 0.00 86 1011.9
20260506071551 25 169 6.4 14.5 0.00 0.00 0.00 86 1012.1
20260506071034 25 0 6.4 19.3 0.00 0.00 0.00 86 1012.2
20260506070536 25 125 4.8 19.3 0.00 0.00 0.00 86 1012.3
20260506062033 25 169 11.3 27.4 0.00 0.00 0.00 85 1012.3
20260506061542 25 171 8.0 20.9 0.00 0.00 0.00 85 1012.4
20260506061034 25 170 8.0 22.5 0.00 0.00 0.00 85 1012.4
20260506060535 25 117 6.4 25.7 0.00 0.00 0.00 85 1012.3
20260506051034 25 155 8.0 20.9 0.00 0.00 0.00 86 1012.6
20260506050534 25 98 6.4 16.1 0.00 0.00 0.00 86 1012.6
20260506045034 25 76 3.2 19.3 0.00 0.00 0.00 86 1012.5
20260506044539 25 150 4.8 19.3 0.00 0.00 0.00 86 1012.5
20260506044035 25 122 6.4 16.1 0.00 0.00 0.00 86 1012.6
20260506043534 25 130 4.8 16.1 0.00 0.00 0.00 86 1012.6
20260506043044 25 0 4.8 16.1 0.00 0.00 0.00 86 1012.4
20260506042535 25 119 4.8 17.7 0.00 0.00 0.00 86 1012.5
20260506042035 25 134 4.8 19.3 0.00 0.00 0.00 86 1012.4
20260506041542 25 0 3.2 19.3 0.00 0.00 0.00 86 1012.4
20260506041036 25 150 4.8 16.1 0.00 0.00 0.00 85 1012.2
20260506040536 25 0 3.2 19.3 0.00 0.00 0.00 85 1012.1
20260506040041 25 138 6.4 19.3 0.00 0.00 0.00 85 1012.2
20260506035536 25 70 4.8 14.5 0.00 0.00 0.00 85 1012.2
20260506035037 25 84 3.2 19.3 0.00 0.00 0.00 85 1012.2
20260506034551 25 0 6.4 19.3 0.00 0.00 0.00 85 1012.2
20260506034036 25 104 6.4 17.7 0.00 0.00 0.00 85 1012.1
20260506033536 25 145 8.0 17.7 0.00 0.00 0.00 84 1012.0
20260506033049 26 153 4.8 17.7 0.00 0.00 0.00 84 1012.0
20260506032536 26 110 4.8 17.7 0.00 0.00 0.00 84 1012.0
20260506032036 26 172 3.2 14.5 0.00 0.00 0.00 84 1011.9
20260506031542 26 0 4.8 11.3 0.00 0.00 0.00 84 1011.9
20260506031038 26 113 4.8 11.3 0.00 0.00 0.00 84 1011.8
20260506030538 26 0 3.2 12.9 0.00 0.00 0.00 84 1011.7
20260506030042 26 83 3.2 12.9 0.00 0.00 0.00 84 1011.7
20260506025537 26 127 3.2 14.5 0.00 0.00 0.00 83 1011.6
20260506025036 26 153 3.2 14.5 0.00 0.00 0.00 83 1011.5
20260506024550 26 109 4.8 14.5 0.00 0.00 0.00 83 1011.3
20260506024036 26 136 3.2 14.5 0.00 0.00 0.00 83 1011.3
20260506023536 26 159 6.4 14.5 0.00 0.00 0.00 83 1011.3
20260506023047 26 0 6.4 14.5 0.00 0.00 0.00 83 1011.1
20260506022536 26 68 3.2 14.5 0.00 0.00 0.00 83 1010.9
20260506022036 26 93 6.4 16.1 0.00 0.00 0.00 82 1010.7
20260506021547 26 111 6.4 16.1 0.00 0.00 0.00 82 1010.6
20260506021036 26 84 6.4 16.1 0.00 0.00 0.00 82 1010.5
20260506020536 26 123 4.8 16.1 0.00 0.00 0.00 81 1010.5
20260506020050 27 96 4.8 19.3 0.00 0.00 0.00 81 1010.3
20260506015538 27 96 6.4 19.3 0.00 0.00 0.00 80 1010.3
20260506015037 27 77 6.4 17.7 0.00 0.00 0.00 80 1010.4
20260506014541 27 100 6.4 17.7 0.00 0.00 0.00 80 1010.3
20260506014036 27 84 4.8 17.7 0.00 0.00 0.00 80 1010.4
20260506013536 27 92 4.8 17.7 0.00 0.00 0.00 79 1010.4
20260506013048 27 69 6.4 17.7 0.00 0.00 0.00 79 1010.2
20260506012536 27 108 9.7 17.7 0.00 0.00 0.00 79 1010.1
20260506012035 27 86 8.0 17.7 0.00 0.00 0.00 78 1010.1
20260506011610 27 115 4.8 11.3 0.00 0.00 0.00 78 1010.1
20260506011036 28 0 1.6 9.7 0.00 0.00 0.00 78 1009.9
20260506010537 28 0 3.2 17.7 0.00 0.00 0.00 77 1009.8
20260506010047 28 155 8.0 19.3 0.00 0.00 0.00 76 1009.7
20260506005536 28 78 9.7 19.3 0.00 0.00 0.00 76 1009.7
20260506005037 28 80 6.4 17.7 0.00 0.00 0.00 75 1009.6
20260506004602 28 66 4.8 20.9 0.00 0.00 0.00 74 1009.5
20260506004036 29 123 6.4 20.9 0.00 0.00 0.00 73 1009.4
20260506003536 29 183 6.4 19.3 0.00 0.00 0.00 73 1009.5
20260506003042 29 80 4.8 12.9 0.00 0.00 0.00 73 1009.5
20260506002536 29 85 3.2 12.9 0.00 0.00 0.00 73 1009.5
20260506002036 30 66 4.8 14.5 0.00 0.00 0.00 72 1009.5
20260506001549 30 57 6.4 17.7 0.00 0.00 0.00 71 1009.5
20260506001036 30 130 4.8 20.9 0.00 0.00 0.00 71 1009.5
20260506000537 30 74 6.4 20.9 0.00 0.00 0.00 70 1009.4
20260506000115 30 144 6.4 14.5 0.00 0.00 0.00 69 1009.4
20260505235536 30 103 1.6 14.5 0.00 0.00 0.00 69 1009.3
20260505235038 30 104 3.2 14.5 0.00 0.00 0.00 68 1009.2
20260505234553 30 76 6.4 20.9 0.00 0.00 0.00 68 1009.1
20260505234038 30 106 4.8 20.9 0.00 0.00 0.00 68 1009.1
20260505233535 31 78 4.8 20.9 0.00 0.00 0.00 67 1009.1
20260505233042 31 123 4.8 16.1 0.00 0.00 0.00 67 1009.1
20260505232536 31 81 6.4 17.7 0.00 0.00 0.00 67 1009.1
20260505232038 31 61 9.7 17.7 0.00 0.00 0.00 66 1009.1
20260505231542 31 67 8.0 16.1 0.00 0.00 0.00 65 1009.1
20260505231035 31 86 3.2 14.5 0.00 0.00 0.00 66 1009.1
20260505230536 31 161 1.6 16.1 0.00 0.00 0.00 65 1009.2
20260505230059 32 0 3.2 16.1 0.00 0.00 0.00 64 1009.2
20260505225537 32 69 6.4 20.9 0.00 0.00 0.00 64 1009.2
20260505225039 32 138 8.0 20.9 0.00 0.00 0.00 63 1009.2
20260505224542 32 94 8.0 17.7 0.00 0.00 0.00 63 1009.1
20260505224037 32 101 3.2 14.5 0.00 0.00 0.00 63 1009.2
20260505223536 32 92 6.4 16.1 0.00 0.00 0.00 62 1009.2
20260505223046 32 90 3.2 16.1 0.00 0.00 0.00 63 1009.2
20260505222537 32 109 4.8 17.7 0.00 0.00 0.00 63 1009.3
20260505222038 32 0 1.6 17.7 0.00 0.00 0.00 63 1009.2
20260505221557 32 161 4.8 14.5 0.00 0.00 0.00 63 1009.1
20260505221036 32 74 4.8 16.1 0.00 0.00 0.00 62 1009.2
20260505220534 32 0 4.8 16.1 0.00 0.00 0.00 62 1009.3
20260505220049 32 89 6.4 16.1 0.00 0.00 0.00 63 1009.4
20260505215535 32 128 6.4 12.9 0.00 0.00 0.00 63 1009.5
20260505215035 32 0 0.0 14.5 0.00 0.00 0.00 64 1009.5
20260505214537 32 0 3.2 14.5 0.00 0.00 0.00 63 1009.6
20260505214035 32 63 6.4 14.5 0.00 0.00 0.00 61 1009.7
20260505213535 33 115 4.8 14.5 0.00 0.00 0.00 61 1009.8
20260505213045 33 134 3.2 20.9 0.00 0.00 0.00 61 1009.8
20260505212535 33 0 6.4 20.9 0.00 0.00 0.00 59 1009.9
20260505212035 33 172 9.7 17.7 0.00 0.00 0.00 59 1010.0
20260505211543 33 66 3.2 14.5 0.00 0.00 0.00 59 1010.1
20260505211035 33 141 4.8 14.5 0.00 0.00 0.00 60 1010.0
20260505210535 33 135 4.8 14.5 0.00 0.00 0.00 59 1010.0
20260505210050 33 178 6.4 17.7 0.00 0.00 0.00 59 1010.0
20260505205535 33 151 4.8 17.7 0.00 0.00 0.00 59 1010.2
20260505205036 33 0 3.2 16.1 0.00 0.00 0.00 61 1010.3
20260505204553 32 109 3.2 16.1 0.00 0.00 0.00 61 1010.5
20260505204034 32 95 8.0 16.1 0.00 0.00 0.00 60 1010.6
20260505203537 32 161 1.6 14.5 0.00 0.00 0.00 61 1010.7
20260505203052 32 110 4.8 14.5 0.00 0.00 0.00 62 1010.7
20260505202534 32 146 6.4 14.5 0.00 0.00 0.00 63 1010.7
20260505202035 32 75 4.8 11.3 0.00 0.00 0.00 62 1010.9
20260505201551 32 163 4.8 11.3 0.00 0.00 0.00 62 1011.0
20260505201036 32 0 1.6 12.9 0.00 0.00 0.00 62 1010.9
20260505200535 32 136 0.0 12.9 0.00 0.00 0.00 61 1010.9
20260505200045 32 116 3.2 12.9 0.00 0.00 0.00 63 1011.0
20260505195538 32 148 1.6 12.9 0.00 0.00 0.00 62 1011.0
20260505195034 31 153 4.8 14.5 0.00 0.00 0.00 63 1011.1
20260505194604 31 185 6.4 14.5 0.00 0.00 0.00 65 1011.2
20260505194034 31 192 4.8 16.1 0.00 0.00 0.00 64 1011.3
20260505193535 31 150 6.4 19.3 0.00 0.00 0.00 65 1011.3
20260505193049 31 0 3.2 19.3 0.00 0.00 0.00 64 1011.4
20260505192534 31 162 8.0 19.3 0.00 0.00 0.00 64 1011.5
20260505192034 31 145 0.0 14.5 0.00 0.00 0.00 65 1011.5
20260505191556 31 205 4.8 17.7 0.00 0.00 0.00 65 1011.6
20260505191034 31 144 9.7 17.7 0.00 0.00 0.00 68 1011.6
20260505190536 30 139 1.6 16.1 0.00 0.00 0.00 67 1011.6
20260505190055 30 160 9.7 16.1 0.00 0.00 0.00 67 1011.6
20260505185537 30 126 6.4 14.5 0.00 0.00 0.00 70 1011.7
20260505185034 29 169 4.8 16.1 0.00 0.00 0.00 70 1011.8
20260505184544 29 0 4.8 17.7 0.00 0.00 0.00 70 1011.7
20260505184034 29 234 6.4 17.7 0.00 0.00 0.00 70 1011.8
20260505183534 29 156 3.2 12.9 0.00 0.00 0.00 71 1011.9
20260505183042 28 134 3.2 17.7 0.00 0.00 0.00 71 1012.0
20260505182534 28 189 4.8 17.7 0.00 0.00 0.00 73 1012.0
20260505182036 28 140 4.8 11.3 0.00 0.00 0.00 73 1012.1
20260505181540 28 198 1.6 16.1 0.00 0.00 0.00 73 1012.1
20260505181036 28 195 6.4 16.1 0.00 0.00 0.00 72 1012.1
20260505180534 28 163 4.8 16.1 0.00 0.00 0.00 73 1012.0
20260505180046 28 138 3.2 14.5 0.00 0.00 0.00 73 1011.9
20260505175534 28 148 6.4 16.1 0.00 0.00 0.00 73 1011.9
20260505175034 28 180 6.4 17.7 0.00 0.00 0.00 73 1012.0
20260505174544 28 129 8.0 17.7 0.00 0.00 0.00 72 1012.0
20260505174034 28 188 1.6 12.9 0.00 0.00 0.00 75 1012.2
20260505173534 28 84 8.0 12.9 0.00 0.00 0.00 74 1012.3
20260505173041 28 245 4.8 14.5 0.00 0.00 0.00 74 1012.3
20260505172535 28 147 4.8 14.5 0.00 0.00 0.00 75 1012.4
20260505172034 27 145 1.6 16.1 0.00 0.00 0.00 76 1012.3
20260505171608 27 186 6.4 16.1 0.00 0.00 0.00 76 1012.4
20260505171035 27 155 8.0 14.5 0.00 0.00 0.00 77 1012.5
20260505170535 26 156 6.4 19.3 0.00 0.00 0.00 77 1012.6
20260505170039 26 183 4.8 19.3 0.00 0.00 0.00 77 1012.7
20260505165534 26 159 8.0 19.3 0.00 0.00 0.00 78 1012.6
20260505165034 26 164 6.4 14.5 0.00 0.00 0.00 79 1012.7
20260505164543 26 139 8.0 14.5 0.00 0.00 0.00 80 1012.8
20260505164035 26 208 4.8 16.1 0.00 0.00 0.00 80 1012.8
20260505163535 25 138 6.4 16.1 0.00 0.00 0.00 82 1012.7
20260505163042 25 162 4.8 16.1 0.00 0.00 0.00 82 1012.7
20260505162534 25 178 6.4 16.1 0.00 0.00 0.00 82 1012.7
20260505162034 25 191 8.0 16.1 0.00 0.00 0.00 82 1012.7
20260505161540 25 0 6.4 16.1 0.00 0.00 0.00 82 1012.7
20260505161034 25 196 6.4 16.1 0.00 0.00 0.00 82 1012.7
20260505160538 25 169 6.4 14.5 0.00 0.00 0.00 83 1012.7
20260505153042 24 161 8.0 20.9 0.00 0.00 0.00 86 1012.8
20260505152533 23 145 4.8 17.7 0.00 0.00 0.00 87 1012.8
20260505152034 23 159 6.4 17.7 0.00 0.00 0.00 87 1012.9
20260505151541 23 157 4.8 14.5 0.00 0.00 0.00 87 1012.9
20260505151034 23 153 3.2 12.9 0.00 0.00 0.00 88 1012.9
20260505150534 23 169 3.2 16.1 0.00 0.00 0.00 88 1012.9